Regional Weather Roundup
Issued by NWS

Home | Current Version | Previous Version | Text Only | Print | Product List | Glossary Off
Versions: 1 2 3 4 5 6 7 8 9 10 11 12 13 14 15 16 17 18 19 20 21 22 23 24 25 26 27 28 29 30 31 32 33 34 35 36 37 38 39 40 41 42 43 44 45 46 47 48 49 50

000
ASUS43 KBIS 261102
RWRND

NORTH DAKOTA REGIONAL WEATHER ROUNDUP
NATIONAL WEATHER SERVICE BISMARCK ND
600 AM CDT THU APR 26 2018

NOTE: "FAIR" INDICATES FEW OR NO CLOUDS BELOW 12,000 FEET WITH NO
SIGNIFICANT WEATHER AND/OR OBSTRUCTIONS TO VISIBILITY.


NDZ001>003-009>011-017-261200-
NORTHWEST NORTH DAKOTA

CITY           SKY/WX    TMP DP  RH WIND       PRES   REMARKS
WILLISTON      CLEAR     34  28  79 CALM      30.15R
MINOT          CLEAR     36  29  75 SW7       30.08R
MINOT AFB      CLEAR     30  26  85 NW9       30.07R
$$

NDZ018>021-031>035-040>046-261200-
SOUTHWEST NORTH DAKOTA

CITY           SKY/WX    TMP DP  RH WIND       PRES   REMARKS
BISMARCK       CLEAR     40  31  70 NW9       30.07R
DICKINSON      CLEAR     31  27  85 W7        30.11R
GARRISON         N/A     33  29  85 NW12      30.09R
HETTINGER ARPT CLEAR     32  28  85 NW6       30.14R
$$

NDZ004>008-012>016-024-026-027-054-261200-
NORTHEAST NORTH DAKOTA

CITY           SKY/WX    TMP DP  RH WIND       PRES   REMARKS
GRAND FORKS    FAIR      37  31  78 N14       29.95R
GRND FRKS AFB  FAIR      38  29  72 N14       29.96R
DEVILS LAKE    FAIR      33  27  78 NW12      30.03R
$$

NDZ022-023-025-028>030-036>039-047>053-261200-
SOUTHEAST NORTH DAKOTA

CITY           SKY/WX    TMP DP  RH WIND       PRES   REMARKS
FARGO          FAIR      42  32  67 N20G32    29.90R
JAMESTOWN      CLEAR     37  30  75 NW10      29.99R
$$





USA.gov is the U.S. government's official web portal to all federal, state and local government web resources and services.